switch to basic browser
📂
📝
📟

🌲 / music atlantic-point-tapes

c File Name Size files Circle Album tn Artist Title Tdate bpm dur q aq Ac Fmt T Date
-1829.mp32901526Randy GoffeThe Atlantic TapesRandy Goffe18292013125.217392185185mp3mp3mp32026-03-13 13:32:54
-Afternoon Forecast.mp33473218Randy GoffeThe Atlantic TapesRandy GoffeAfternoon Forecast2013170.126599163163mp3mp3mp32026-03-13 13:32:54
-Aldo.mp31940807Randy GoffeThe Atlantic TapesRandy GoffeAldo201399.047619156156mp3mp3mp32026-03-13 13:32:54
-Altitude Sickness.mp31865964Randy GoffeThe Atlantic TapesRandy GoffeAltitude Sickness201385.600907174173mp3mp3mp32026-03-13 13:32:55
-Amiga Warrior.mp32780611Randy GoffeThe Atlantic TapesRandy GoffeAmiga Warrior2013115.443039192192mp3mp3mp32026-03-13 13:32:55
-Analog Kids.mp34280342Randy GoffeThe Atlantic TapesRandy GoffeAnalog Kids2013182.532222187187mp3mp3mp32026-03-13 13:32:55
-Atlantic Eyes.mp33564190Randy GoffeThe Atlantic TapesRandy GoffeAtlantic Eyes2013149.610408190190mp3mp3mp32026-03-13 13:32:55
-Background Radiation.mp32654065Randy GoffeThe Atlantic TapesRandy GoffeBackground Radiation201392.5229229mp3mp3mp32026-03-13 13:32:55
-Byzantium.mp32631212Randy GoffeThe Atlantic TapesRandy GoffeByzantium2013102.524286205204mp3mp3mp32026-03-13 13:32:55
-Calvin Harris - We'll Be Coming Back Remix.mp36520423Randy GoffeThe Atlantic TapesRandy GoffeCalvin Harris - We'll Be Coming Back Remix2013128262.5198198mp3mp3mp32026-03-13 13:32:55
-Carrier Wave.mp32859443Randy GoffeThe Atlantic TapesRandy GoffeCarrier Wave2013121.165057188188mp3mp3mp32026-03-13 13:32:55
-Chemical Burns.mp34610519Randy GoffeThe Atlantic TapesRandy GoffeChemical Burns2013189.76746194194mp3mp3mp32026-03-13 13:32:55
-Chemical Seperation.mp33241326Randy GoffeThe Atlantic TapesRandy GoffeChemical Seperation2013119.215692217217mp3mp3mp32026-03-13 13:32:55
-Chryselephantine.mp33511893Randy GoffeThe Atlantic TapesRandy GoffeChryselephantine2013158.4177177mp3mp3mp32026-03-13 13:32:55
-Coastal Survey.mp33783273Randy GoffeThe Atlantic TapesRandy GoffeCoastal Survey2013169.422109178178mp3mp3mp32026-03-13 13:32:55
-Commodore.mp32353695Randy GoffeThe Atlantic TapesRandy GoffeCommodore201399.224671189189mp3mp3mp32026-03-13 13:32:55
-Commuter.mp31709533Randy GoffeThe Atlantic TapesRandy GoffeCommuter201369.818186195195mp3mp3mp32026-03-13 13:32:55
-Daft Punk - Get Lucky Remix.mp32479797Randy GoffeThe Atlantic TapesRandy GoffeDaft Punk - Get Lucky Remix2013105188188mp3mp3mp32026-03-13 13:32:55
-Descender.mp32871787Randy GoffeThe Atlantic TapesRandy GoffeDescender2013115.555556198198mp3mp3mp32026-03-13 13:32:55
-Digital Lagoon.mp32826715Randy GoffeThe Atlantic TapesRandy GoffeDigital Lagoon2013120188188mp3mp3mp32026-03-13 13:32:55
-Elevator.mp33276293Randy GoffeThe Atlantic TapesRandy GoffeElevator2013161.344558162162mp3mp3mp32026-03-13 13:32:55
-Endocrine Rough Cut.mp33767785Randy GoffeThe Atlantic TapesRandy GoffeEndocrine Rough Cut2013145.210091207207mp3mp3mp32026-03-13 13:32:55
-Even Dumber Awful Song From Hell (Friendly Reptilian Man Edition).mp31431482Randy GoffeThe Atlantic TapesRandy GoffeEven Dumber Awful Song From Hell (Friendly Reptilian Man Edition)201360190190mp3mp3mp32026-03-13 13:32:55
-For The Benefit Of Macho Man Randy Savage.mp31963459Randy GoffeThe Atlantic TapesRandy GoffeFor The Benefit Of Macho Man Randy Savage201379.058844198198mp3mp3mp32026-03-13 13:32:55
-Fourteen Seconds.mp3349151Randy GoffeThe Atlantic TapesRandy GoffeFourteen Seconds201313.846168201198mp3mp3mp32026-03-13 13:32:55
-Freezerburn.mp32057339Randy GoffeThe Atlantic TapesRandy GoffeFreezerburn201380.816327203203mp3mp3mp32026-03-13 13:32:55
-Get Up And Leave.mp32641726Randy GoffeThe Atlantic TapesRandy GoffeGet Up And Leave2013123.302766171171mp3mp3mp32026-03-13 13:32:55
-Gone Tomorrow.mp33084159Randy GoffeThe Atlantic TapesRandy GoffeGone Tomorrow2013130.487778189188mp3mp3mp32026-03-13 13:32:55
-Headcase.mp32450885Randy GoffeThe Atlantic TapesRandy GoffeHeadcase201398.1022199199mp3mp3mp32026-03-13 13:32:55
-Heavy Drizzle.mp3657112Randy GoffeThe Atlantic TapesRandy GoffeHeavy Drizzle201327.8261188187mp3mp3mp32026-03-13 13:32:55
-Highway Patrol.mp35151822Randy GoffeThe Atlantic TapesRandy GoffeHighway Patrol2013213.09805193193mp3mp3mp32026-03-13 13:32:55
-Holding Pattern.mp34005542Randy GoffeThe Atlantic TapesRandy GoffeHolding Pattern2013179.439274178178mp3mp3mp32026-03-13 13:32:55
-In Transit.mp32264208Randy GoffeThe Atlantic TapesRandy GoffeIn Transit201392.673288195195mp3mp3mp32026-03-13 13:32:55
-Midnight Heroes.mp34578753Randy GoffeThe Atlantic TapesRandy GoffeMidnight Heroes2013180.138322203203mp3mp3mp32026-03-13 13:32:55
-Millenium.mp31696430Randy GoffeThe Atlantic TapesRandy GoffeMillenium201368.571429197197mp3mp3mp32026-03-13 13:32:55
-Morning Bells.mp32517820Randy GoffeThe Atlantic TapesRandy GoffeMorning Bells2013107.586213187186mp3mp3mp32026-03-13 13:32:55
-Nerve Gas-Laugh Track.mp31676084Randy GoffeThe Atlantic TapesRandy GoffeNerve Gas-Laugh Track201374.666667179179mp3mp3mp32026-03-13 13:32:55
-Prime.mp34233944Randy GoffePrime174194194mp3mp3mp32026-03-13 13:32:55
-Receiver.mp31251323Randy GoffeThe Atlantic TapesRandy GoffeReceiver201352.812154189188mp3mp3mp32026-03-13 13:32:55
-Release (W.I.P.).mp34933652Randy GoffeThe Atlantic TapesRandy GoffeRelease (W.I.P.)2013216182182mp3mp3mp32026-03-13 13:32:55
-Sayyet.mp31845884Randy GoffeThe Atlantic TapesRandy GoffeSayyet201376.682222192192mp3mp3mp32026-03-13 13:32:55
-Seagull Mirage.mp32173651Seagull Mirage102.4169169mp3mp3mp32026-03-13 13:32:55
-Self Help - Heart Faliure.mp32618430Randy GoffeThe Atlantic TapesRandy GoffeSelf Help - Heart Faliure2013113.026825185184mp3mp3mp32026-03-13 13:32:55
-Skies Are Watching.mp33654199Randy GoffeThe Atlantic TapesRandy GoffeSkies Are Watching2013148.453628196196mp3mp3mp32026-03-13 13:32:55
-Space Prison.mp31472337Randy GoffeThe Atlantic TapesRandy GoffeSpace Prison201355.553673212211mp3mp3mp32026-03-13 13:32:55
-System Crash.mp33187610Randy GoffeThe Atlantic TapesRandy GoffeSystem Crash2013121.081088210210mp3mp3mp32026-03-13 13:32:55
-Take Me Home.mp325408091Randy GoffeTake Me Home2012158.667813128128mp3mp3mp32026-03-13 13:32:55
-This Probably Isn't The Place .mp31524056Randy GoffeThe Atlantic TapesRandy GoffeThis Probably Isn't The Place201364190189mp3mp3mp32026-03-13 13:32:55
-Tokyo Bay.mp31146346Randy GoffeThe Atlantic TapesRandy GoffeTokyo Bay201355.18746166165mp3mp3mp32026-03-13 13:32:55
-Unity.mp33019126Randy GoffeThe Atlantic TapesRandy GoffeUnity2013135178178mp3mp3mp32026-03-13 13:32:55
-Urban Decay.mp31353007Randy GoffeThe Atlantic TapesRandy GoffeUrban Decay201358.77551184183mp3mp3mp32026-03-13 13:32:55
-Waterlogged.mp31830322Randy GoffeThe Atlantic TapesRandy GoffeWaterlogged201374.666667196195mp3mp3mp32026-03-13 13:32:55

control-panel

π
copyparty // 398 GiB free of 457 GiB